This is the latest recevied weather packets stored in our database for station/object KB3FKJ. If no packets are shown the sender has not sent any weather packets the latest 10 day(s).
| Time | Temp. | Humidity | Pressure | Rain* | Wind** | Luminosity | Snow |
|---|---|---|---|---|---|---|---|
| 1777668280 | 8.33° C | 92% | 1010.9 hPa | 0 mm | - | 73 W/m² | - |
| 1777667976 | 7.78° C | 92% | 1010.9 hPa | 1.78 mm | - | 66 W/m² | - |
| 1777667673 | 7.78° C | 92% | 1010.8 hPa | 1.78 mm | - | 48 W/m² | - |
| 1777667371 | 7.78° C | 91% | 1010.9 hPa | 0 mm | - | 24 W/m² | - |
| 1777667068 | 7.78° C | 91% | 1011 hPa | 1.27 mm | - | 15 W/m² | - |
| 1777666764 | 7.78° C | 90% | 1011 hPa | 1.27 mm | - | 20 W/m² | - |
| 1777666461 | 8.33° C | 88% | 1010.8 hPa | 1.78 mm | - | 28 W/m² | - |
| 1777666158 | 8.89° C | 86% | 1010.8 hPa | 1.78 mm | - | 42 W/m² | - |
| 1777665855 | 8.89° C | 84% | 1010.8 hPa | 0 mm | - | 34 W/m² | - |
| 1777665553 | 8.89° C | 82% | 1010.5 hPa | 0 mm | - | 25 W/m² | - |
| 1777665249 | 9.44° C | 80% | 1010.6 hPa | 0 mm | - | 42 W/m² | - |
| 1777664944 | 9.44° C | 79% | 1010.6 hPa | 0 mm | - | 24 W/m² | - |
| 1777664641 | 10° C | 76% | 1010.8 hPa | 0 mm | - | 29 W/m² | - |
| 1777664336 | 10.56° C | 75% | 1010.6 hPa | 0 mm | - | 27 W/m² | - |
| 1777664035 | 10.56° C | 71% | 1010.6 hPa | 0 mm | - | 39 W/m² | - |
| 1777663732 | 11.11° C | 65% | 1010.5 hPa | 0 mm | - | 30 W/m² | - |
| 1777663429 | 11.67° C | 61% | 1010.6 hPa | 0 mm | - | 46 W/m² | - |
| 1777663127 | 12.22° C | 60% | 1010.4 hPa | 0 mm | - | 60 W/m² | - |
| 1777662823 | 12.78° C | 59% | 1010.2 hPa | 0 mm | - | 48 W/m² | - |
| 1777662520 | 12.78° C | 56% | 1010.2 hPa | 0 mm | - | 54 W/m² | - |
| 1777662216 | 12.78° C | 57% | 1010.1 hPa | 0 mm | - | 35 W/m² | - |
| 1777661911 | 13.33° C | 53% | 1010.1 hPa | 0 mm | - | 68 W/m² | - |
| 1777661608 | 13.33° C | 53% | 1010.1 hPa | 0 mm | - | 108 W/m² | - |
| 1777661304 | 13.89° C | 51% | 1010.1 hPa | 0 mm | - | 137 W/m² | - |
| 1777661000 | 13.89° C | 53% | 1010.1 hPa | 0 mm | - | 114 W/m² | - |
* Rain latest hour (hover to see other rain measurements)
** Current wind speed in m/s (hover to see current wind gust speed)